PDA320 UKDD-UKBB

Flight info

Callsign PDA320
Flight time 0h 56m
Altitude 36000
Route PEKIT L67 VEBIX
Aircraft B737/M-SDE2E3FGHIRWXY/LB1

Departure

Time 2026-05-06 17:17
Airport Dnipro International Airport (UKDD)

Arrival

Time 2026-05-06 18:13
Airport Boryspil International Airport (UKBB)
Time Latitude Longitude Altitude Speed Heading
2026-05-06 15:51 48.36784 35.09571 491 ft 0 kts 36°
2026-05-06 16:34 48.36763 35.09549 488 ft 3 kts 36°
2026-05-06 16:34 48.36747 35.09532 481 ft 3 kts 36°
2026-05-06 16:34 48.36731 35.09514 483 ft 3 kts 36°
2026-05-06 16:34 48.36716 35.09498 479 ft 3 kts 36°
2026-05-06 16:35 48.36711 35.09493 479 ft 0 kts 36°
2026-05-06 17:01 48.36713 35.09495 489 ft 1 kts 36°
2026-05-06 17:01 48.36723 35.09507 489 ft 3 kts 43°
2026-05-06 17:01 48.36724 35.09539 488 ft 4 kts 102°
2026-05-06 17:01 48.36697 35.09575 488 ft 7 kts 179°
2026-05-06 17:02 48.36645 35.09530 483 ft 11 kts 216°
2026-05-06 17:02 48.36567 35.09441 484 ft 17 kts 217°
2026-05-06 17:02 48.36469 35.09333 478 ft 18 kts 217°
2026-05-06 17:02 48.36373 35.09225 477 ft 17 kts 217°
2026-05-06 17:03 48.36281 35.09121 476 ft 16 kts 216°
2026-05-06 17:03 48.36192 35.09022 470 ft 16 kts 217°
2026-05-06 17:03 48.36106 35.08924 473 ft 16 kts 218°
2026-05-06 17:03 48.36025 35.08809 471 ft 16 kts 233°
2026-05-06 17:04 48.35967 35.08672 469 ft 15 kts 243°
2026-05-06 17:04 48.35945 35.08594 467 ft 0 kts 250°
2026-05-06 17:08 48.35944 35.08589 464 ft 2 kts 250°
2026-05-06 17:09 48.35937 35.08552 467 ft 5 kts 254°
2026-05-06 17:09 48.35926 35.08487 466 ft 7 kts 256°
2026-05-06 17:09 48.35913 35.08419 466 ft 7 kts 247°
2026-05-06 17:09 48.35886 35.08364 467 ft 7 kts 222°
2026-05-06 17:10 48.35847 35.08322 466 ft 7 kts 214°
2026-05-06 17:10 48.35799 35.08279 464 ft 9 kts 200°
2026-05-06 17:10 48.35741 35.08286 465 ft 8 kts 153°
2026-05-06 17:10 48.35727 35.08348 467 ft 6 kts 77°
2026-05-06 17:11 48.35729 35.08396 467 ft 0 kts 90°
2026-05-06 17:16 48.35730 35.08489 469 ft 39 kts 90°
2026-05-06 17:16 48.35728 35.09416 463 ft 132 kts 90°
2026-05-06 17:17 48.35735 35.11157 586 ft 194 kts 90°
2026-05-06 17:17 48.35763 35.13326 1125 ft 221 kts 91°
2026-05-06 17:17 48.35757 35.15767 1809 ft 244 kts 92°
2026-05-06 17:17 48.35739 35.18420 2599 ft 262 kts 91°
2026-05-06 17:18 48.35728 35.21237 3468 ft 275 kts 90°
2026-05-06 17:18 48.35728 35.24163 4415 ft 284 kts 86°
2026-05-06 17:18 48.35948 35.26097 5053 ft 286 kts 68°
2026-05-06 17:18 48.37023 35.28581 6057 ft 287 kts 42°
2026-05-06 17:19 48.38745 35.30070 7072 ft 289 kts 18°
2026-05-06 17:19 48.41401 35.30123 8426 ft 293 kts 353°
2026-05-06 17:19 48.43398 35.30201 9387 ft 288 kts 20°
2026-05-06 17:19 48.45293 35.31272 10057 ft 298 kts 15°
2026-05-06 17:20 48.46728 35.31414 10299 ft 317 kts 356°
2026-05-06 17:20 48.48902 35.30224 10393 ft 353 kts 329°
2026-05-06 17:20 48.50579 35.27443 10794 ft 375 kts 300°
2026-05-06 17:20 48.51283 35.23628 11801 ft 374 kts 277°
2026-05-06 17:21 48.51597 35.19828 12805 ft 366 kts 287°
2026-05-06 17:21 48.52559 35.16353 13793 ft 355 kts 303°
2026-05-06 17:21 48.53949 35.13314 14662 ft 348 kts 310°
2026-05-06 17:21 48.55445 35.10489 15500 ft 342 kts 310°
2026-05-06 17:22 48.56587 35.07349 16296 ft 344 kts 289°
2026-05-06 17:22 48.56928 35.03782 17088 ft 343 kts 275°
2026-05-06 17:22 48.57011 35.00196 17874 ft 339 kts 273°
2026-05-06 17:22 48.57059 34.96651 18589 ft 336 kts 273°
2026-05-06 17:23 48.57116 34.93139 19221 ft 333 kts 273°
2026-05-06 17:23 48.57189 34.89661 19826 ft 330 kts 274°
2026-05-06 17:23 48.57270 34.86207 20430 ft 328 kts 274°
2026-05-06 17:23 48.57351 34.82777 21008 ft 326 kts 274°
2026-05-06 17:24 48.57763 34.79465 21533 ft 319 kts 296°
2026-05-06 17:24 48.58913 34.76669 22044 ft 311 kts 315°
2026-05-06 17:24 48.60378 34.74291 22568 ft 308 kts 318°
2026-05-06 17:24 48.61875 34.71983 23066 ft 307 kts 319°
2026-05-06 17:25 48.63375 34.69696 23555 ft 306 kts 319°
2026-05-06 17:25 48.64852 34.67437 23939 ft 305 kts 319°
2026-05-06 17:25 48.66357 34.65123 24323 ft 304 kts 318°
2026-05-06 17:25 48.67818 34.62864 24689 ft 304 kts 318°
2026-05-06 17:26 48.69289 34.60580 25052 ft 303 kts 317°
2026-05-06 17:26 48.70778 34.58261 25408 ft 302 kts 317°
2026-05-06 17:26 48.72223 34.56003 25750 ft 302 kts 317°
2026-05-06 17:26 48.73678 34.53727 26082 ft 301 kts 317°
2026-05-06 17:27 48.75147 34.51425 26272 ft 310 kts 317°
2026-05-06 17:27 48.76681 34.49023 26380 ft 325 kts 317°
2026-05-06 17:27 48.78291 34.46499 26490 ft 340 kts 316°
2026-05-06 17:27 48.79966 34.43867 26599 ft 354 kts 316°
2026-05-06 17:28 48.81713 34.41117 26706 ft 369 kts 316°
2026-05-06 17:28 48.83528 34.38255 26801 ft 383 kts 316°
2026-05-06 17:28 48.85407 34.35287 26890 ft 397 kts 316°
2026-05-06 17:28 48.87352 34.32210 26978 ft 410 kts 316°
2026-05-06 17:29 48.89357 34.29035 27065 ft 422 kts 315°
2026-05-06 17:29 48.91416 34.25770 27139 ft 433 kts 315°
2026-05-06 17:29 48.93524 34.22422 27324 ft 441 kts 315°
2026-05-06 17:29 48.95653 34.19036 27699 ft 443 kts 315°
2026-05-06 17:30 48.97789 34.15634 28142 ft 444 kts 315°
2026-05-06 17:30 48.99925 34.12228 28553 ft 446 kts 315°
2026-05-06 17:30 49.02072 34.08800 28923 ft 448 kts 315°
2026-05-06 17:30 49.04198 34.05404 29249 ft 451 kts 315°
2026-05-06 17:31 49.06364 34.01938 29582 ft 453 kts 315°
2026-05-06 17:31 49.08544 33.98447 29918 ft 455 kts 314°
2026-05-06 17:31 49.10722 33.94952 30203 ft 457 kts 314°
2026-05-06 17:31 49.12924 33.91415 30526 ft 457 kts 314°
2026-05-06 17:32 49.15104 33.87908 30930 ft 455 kts 314°
2026-05-06 17:32 49.17277 33.84408 31365 ft 452 kts 314°
2026-05-06 17:32 49.19433 33.80929 31741 ft 451 kts 314°
2026-05-06 17:32 49.21590 33.77446 32089 ft 451 kts 314°
2026-05-06 17:33 49.23743 33.73962 32433 ft 450 kts 314°
2026-05-06 17:33 49.25894 33.70480 32805 ft 449 kts 314°
2026-05-06 17:33 49.28030 33.67016 33162 ft 448 kts 314°
2026-05-06 17:33 49.30154 33.63566 33498 ft 447 kts 313°
2026-05-06 17:34 49.32035 33.59759 33765 ft 448 kts 298°
2026-05-06 17:34 49.33368 33.55450 34103 ft 446 kts 295°
2026-05-06 17:34 49.34630 33.51114 34401 ft 445 kts 294°
2026-05-06 17:34 49.35885 33.46752 34632 ft 446 kts 294°
2026-05-06 17:35 49.37143 33.42405 34869 ft 446 kts 294°
2026-05-06 17:35 49.38411 33.38068 35136 ft 445 kts 295°
2026-05-06 17:35 49.39687 33.33743 35411 ft 444 kts 295°
2026-05-06 17:36 49.42245 33.25120 35887 ft 443 kts 295°
2026-05-06 17:36 49.43522 33.20819 35967 ft 446 kts 295°
2026-05-06 17:36 49.46104 33.12104 35975 ft 447 kts 295°
2026-05-06 17:37 49.48653 33.03464 35965 ft 441 kts 295°
2026-05-06 17:37 49.51161 32.94935 35970 ft 440 kts 295°
2026-05-06 17:38 49.53674 32.86352 35966 ft 439 kts 295°
2026-05-06 17:38 49.56182 32.77756 35840 ft 441 kts 295°
2026-05-06 17:39 49.57447 32.73412 35288 ft 445 kts 295°
2026-05-06 17:39 49.58706 32.69078 34735 ft 443 kts 295°
2026-05-06 17:39 49.59957 32.64763 34332 ft 438 kts 295°
2026-05-06 17:39 49.61195 32.60485 33891 ft 435 kts 295°
2026-05-06 17:40 49.62421 32.56243 33393 ft 431 kts 295°
2026-05-06 17:40 49.63636 32.52029 32936 ft 428 kts 295°
2026-05-06 17:40 49.64839 32.47850 32510 ft 424 kts 295°
2026-05-06 17:40 49.66026 32.43719 32077 ft 420 kts 295°
2026-05-06 17:41 49.67206 32.39608 31651 ft 417 kts 295°
2026-05-06 17:41 49.68373 32.35534 31230 ft 413 kts 295°
2026-05-06 17:41 49.69526 32.31503 30822 ft 410 kts 295°
2026-05-06 17:41 49.70678 32.27466 30415 ft 408 kts 295°
2026-05-06 17:42 49.71806 32.23511 30009 ft 405 kts 295°
2026-05-06 17:42 49.72939 32.19530 29539 ft 403 kts 295°
2026-05-06 17:42 49.74057 32.15592 29091 ft 399 kts 295°
2026-05-06 17:42 49.75166 32.11683 28663 ft 395 kts 295°
2026-05-06 17:43 49.76266 32.07796 28244 ft 391 kts 295°
2026-05-06 17:43 49.77353 32.03949 27815 ft 388 kts 295°
2026-05-06 17:43 49.78427 32.00147 27418 ft 385 kts 295°
2026-05-06 17:43 49.79495 31.96358 27002 ft 382 kts 295°
2026-05-06 17:44 49.80554 31.92594 26598 ft 379 kts 295°
2026-05-06 17:44 49.81602 31.88869 26198 ft 376 kts 296°
2026-05-06 17:44 49.83001 31.85489 25779 ft 371 kts 314°
2026-05-06 17:44 49.84990 31.83026 25416 ft 365 kts 330°
2026-05-06 17:45 49.87181 31.81047 25032 ft 362 kts 332°
2026-05-06 17:45 49.89381 31.79159 24642 ft 360 kts 332°
2026-05-06 17:45 49.91570 31.77296 24255 ft 359 kts 332°
2026-05-06 17:45 49.93751 31.75426 23869 ft 357 kts 332°
2026-05-06 17:46 49.95917 31.73552 23480 ft 355 kts 332°
2026-05-06 17:46 49.98066 31.71676 23036 ft 354 kts 331°
2026-05-06 17:46 50.00207 31.69796 22612 ft 352 kts 331°
2026-05-06 17:46 50.02329 31.67924 22232 ft 349 kts 331°
2026-05-06 17:47 50.04431 31.66065 21841 ft 346 kts 331°
2026-05-06 17:47 50.06509 31.64224 21455 ft 343 kts 331°
2026-05-06 17:47 50.08557 31.62408 21084 ft 341 kts 331°
2026-05-06 17:47 50.10611 31.60584 20712 ft 339 kts 331°
2026-05-06 17:48 50.12653 31.58769 20344 ft 337 kts 330°
2026-05-06 17:48 50.14687 31.56960 19968 ft 335 kts 331°
2026-05-06 17:48 50.16705 31.55163 19612 ft 333 kts 331°
2026-05-06 17:48 50.18709 31.53376 19249 ft 332 kts 330°
2026-05-06 17:49 50.20703 31.51597 18888 ft 330 kts 330°
2026-05-06 17:49 50.22700 31.49813 18525 ft 329 kts 330°
2026-05-06 17:49 50.24685 31.48038 18166 ft 328 kts 330°
2026-05-06 17:49 50.26659 31.46272 17745 ft 327 kts 330°
2026-05-06 17:50 50.28637 31.44499 17361 ft 325 kts 330°
2026-05-06 17:50 50.30591 31.42748 16984 ft 324 kts 330°
2026-05-06 17:50 50.32542 31.40997 16623 ft 322 kts 330°
2026-05-06 17:50 50.34477 31.39258 16264 ft 320 kts 330°
2026-05-06 17:51 50.36377 31.37550 15914 ft 318 kts 330°
2026-05-06 17:51 50.38226 31.35679 15540 ft 317 kts 317°
2026-05-06 17:51 50.38747 31.34850 15424 ft 316 kts 310°
2026-05-06 17:52 50.39544 31.32981 15208 ft 315 kts 297°
2026-05-06 17:52 50.40456 31.29918 14850 ft 314 kts 294°
2026-05-06 17:52 50.41326 31.26773 14496 ft 314 kts 294°
2026-05-06 17:52 50.42188 31.23641 14139 ft 313 kts 294°
2026-05-06 17:53 50.43052 31.20533 13941 ft 307 kts 294°
2026-05-06 17:53 50.43901 31.17516 13796 ft 299 kts 294°
2026-05-06 17:53 50.44735 31.14572 13649 ft 291 kts 294°
2026-05-06 17:53 50.45547 31.11709 13514 ft 283 kts 294°
2026-05-06 17:54 50.46334 31.08930 13390 ft 275 kts 294°
2026-05-06 17:54 50.47167 31.06287 13255 ft 267 kts 307°
2026-05-06 17:54 50.48535 31.04438 13122 ft 258 kts 334°
2026-05-06 17:54 50.50246 31.03693 12874 ft 255 kts 356°
2026-05-06 17:55 50.52007 31.03700 12623 ft 253 kts
2026-05-06 17:55 50.53763 31.03862 12376 ft 251 kts
2026-05-06 17:55 50.55481 31.04044 12143 ft 242 kts
2026-05-06 17:55 50.57127 31.04198 11867 ft 232 kts
2026-05-06 17:56 50.58706 31.04331 11623 ft 223 kts
2026-05-06 17:56 50.60237 31.04453 11401 ft 218 kts
2026-05-06 17:56 50.61735 31.04570 11211 ft 213 kts
2026-05-06 17:56 50.63209 31.04682 11000 ft 210 kts
2026-05-06 17:57 50.64652 31.04792 10783 ft 204 kts
2026-05-06 17:57 50.66028 31.04897 10562 ft 198 kts
2026-05-06 17:57 50.67382 31.05000 10382 ft 192 kts
2026-05-06 17:57 50.68708 31.05099 10193 ft 190 kts
2026-05-06 17:58 50.70023 31.05198 10003 ft 188 kts 360°
2026-05-06 17:58 50.71321 31.05296 9804 ft 186 kts 359°
2026-05-06 17:58 50.72609 31.05393 9606 ft 185 kts 359°
2026-05-06 17:58 50.73885 31.05489 9414 ft 183 kts 359°
2026-05-06 17:59 50.75124 31.05583 9313 ft 175 kts 359°
2026-05-06 17:59 50.76335 31.05674 9167 ft 174 kts 359°
2026-05-06 17:59 50.77550 31.05765 8997 ft 175 kts 359°
2026-05-06 17:59 50.78773 31.05856 8830 ft 176 kts 359°
2026-05-06 18:00 50.79988 31.05813 8628 ft 174 kts 340°
2026-05-06 18:00 50.80877 31.04712 8520 ft 157 kts 294°
2026-05-06 18:00 50.81118 31.03053 8443 ft 159 kts 270°
2026-05-06 18:00 50.81170 31.01276 8269 ft 163 kts 271°
2026-05-06 18:01 50.81230 30.99494 8086 ft 162 kts 271°
2026-05-06 18:01 50.81287 30.97725 7915 ft 160 kts 271°
2026-05-06 18:01 50.81323 30.96569 7807 ft 159 kts 271°
2026-05-06 18:01 50.81369 30.94819 7625 ft 158 kts 265°
2026-05-06 18:02 50.80904 30.93315 7440 ft 155 kts 219°
2026-05-06 18:02 50.79558 30.92722 7262 ft 156 kts 185°
2026-05-06 18:02 50.78810 30.92669 7169 ft 161 kts 186°
2026-05-06 18:02 50.77682 30.92566 6991 ft 162 kts 186°
2026-05-06 18:03 50.76558 30.92470 6812 ft 160 kts 186°
2026-05-06 18:03 50.75454 30.92380 6639 ft 159 kts 186°
2026-05-06 18:03 50.74355 30.92288 6472 ft 157 kts 186°
2026-05-06 18:03 50.73269 30.92201 6311 ft 156 kts 186°
2026-05-06 18:04 50.72176 30.92115 6147 ft 158 kts 186°
2026-05-06 18:04 50.71075 30.92030 5981 ft 159 kts 186°
2026-05-06 18:04 50.69970 30.91945 5814 ft 160 kts 186°
2026-05-06 18:04 50.68851 30.91860 5637 ft 161 kts 186°
2026-05-06 18:05 50.67733 30.91775 5464 ft 159 kts 186°
2026-05-06 18:05 50.66646 30.91693 5292 ft 154 kts 186°
2026-05-06 18:05 50.65594 30.91614 5154 ft 150 kts 186°
2026-05-06 18:05 50.64564 30.91537 5068 ft 148 kts 186°
2026-05-06 18:06 50.63526 30.91458 4998 ft 149 kts 186°
2026-05-06 18:06 50.62490 30.91380 4923 ft 150 kts 186°
2026-05-06 18:06 50.61434 30.91312 4802 ft 157 kts 182°
2026-05-06 18:06 50.60329 30.91407 4654 ft 158 kts 180°
2026-05-06 18:07 50.59247 30.91531 4476 ft 154 kts 180°
2026-05-06 18:07 50.58192 30.91651 4296 ft 150 kts 180°
2026-05-06 18:07 50.57150 30.91790 4153 ft 150 kts 178°
2026-05-06 18:07 50.56122 30.91919 4100 ft 143 kts 181°
2026-05-06 18:08 50.55079 30.91960 3996 ft 154 kts 184°
2026-05-06 18:08 50.54034 30.91938 3815 ft 151 kts 185°
2026-05-06 18:08 50.53007 30.91886 3640 ft 146 kts 186°
2026-05-06 18:08 50.51997 30.91821 3456 ft 146 kts 186°
2026-05-06 18:09 50.50978 30.91749 3265 ft 146 kts 187°
2026-05-06 18:09 50.49962 30.91676 3072 ft 146 kts 187°
2026-05-06 18:09 50.48950 30.91601 2881 ft 145 kts 187°
2026-05-06 18:09 50.47946 30.91527 2696 ft 144 kts 187°
2026-05-06 18:10 50.46959 30.91456 2540 ft 138 kts 187°
2026-05-06 18:10 50.45994 30.91384 2336 ft 138 kts 187°
2026-05-06 18:10 50.45032 30.91312 2152 ft 138 kts 186°
2026-05-06 18:10 50.44072 30.91241 1973 ft 138 kts 186°
2026-05-06 18:11 50.43117 30.91171 1793 ft 137 kts 186°
2026-05-06 18:11 50.42168 30.91100 1612 ft 138 kts 186°
2026-05-06 18:11 50.41188 30.91028 1429 ft 142 kts 186°
2026-05-06 18:11 50.40196 30.90954 1251 ft 142 kts 185°
2026-05-06 18:12 50.39205 30.90881 1072 ft 145 kts 185°
2026-05-06 18:12 50.38195 30.90807 869 ft 144 kts 184°
2026-05-06 18:12 50.37191 30.90732 676 ft 145 kts 184°
2026-05-06 18:12 50.36183 30.90653 490 ft 147 kts 184°
2026-05-06 18:13 50.35223 30.90574 409 ft 127 kts 183°
2026-05-06 18:13 50.34642 30.90537 413 ft 55 kts 181°
2026-05-06 18:13 50.34376 30.90522 412 ft 31 kts 184°
2026-05-06 18:13 50.34177 30.90428 421 ft 29 kts 208°
2026-05-06 18:14 50.34062 30.90316 413 ft 4 kts 212°
2026-05-06 18:15 50.34055 30.90309 417 ft 2 kts 213°
2026-05-06 18:15 50.34039 30.90287 406 ft 4 kts 230°
2026-05-06 18:16 50.34036 30.90233 412 ft 7 kts 283°
2026-05-06 18:16 50.34071 30.90171 415 ft 9 kts 337°
2026-05-06 18:16 50.34134 30.90169 409 ft 9 kts
2026-05-06 18:16 50.34198 30.90172 407 ft 9 kts
2026-05-06 18:17 50.34221 30.90174 412 ft 0 kts
2026-05-06 18:19 50.34226 30.90174 413 ft 3 kts
2026-05-06 18:19 50.34265 30.90177 415 ft 14 kts
2026-05-06 18:19 50.34404 30.90188 407 ft 22 kts
2026-05-06 18:20 50.34551 30.90198 408 ft 21 kts
2026-05-06 18:20 50.34685 30.90208 413 ft 16 kts
2026-05-06 18:20 50.34794 30.90211 408 ft 15 kts 359°
2026-05-06 18:20 50.34886 30.90164 409 ft 15 kts 293°
2026-05-06 18:21 50.34914 30.90020 412 ft 11 kts 322°
2026-05-06 18:21 50.34990 30.90004 410 ft 11 kts
2026-05-06 18:21 50.35065 30.90008 411 ft 11 kts
2026-05-06 18:21 50.35129 30.90012 406 ft 9 kts
2026-05-06 18:22 50.35145 30.90010 409 ft 2 kts 348°
2026-05-06 18:22 50.35152 30.89993 411 ft 2 kts 282°
2026-05-06 18:22 50.35151 30.89963 406 ft 3 kts 267°
2026-05-06 18:22 50.35151 30.89914 414 ft 6 kts 272°
2026-05-06 18:23 50.35152 30.89888 408 ft 0 kts 272°
2026-05-06 19:06 50.35152 30.89890 414 ft 0 kts 276°
2026-05-06 19:07 50.35152 30.89891 414 ft 0 kts 281°
2026-05-06 19:07 50.35152 30.89893 414 ft 0 kts 285°
2026-05-06 19:07 50.35152 30.89895 414 ft 0 kts 286°
2026-05-06 19:07 50.35152 30.89896 406 ft 0 kts 286°
2026-05-06 19:08 50.35151 30.89898 407 ft 0 kts 286°
2026-05-06 19:08 50.35151 30.89900 407 ft 0 kts 286°
2026-05-06 19:08 50.35151 30.89901 407 ft 0 kts 286°
2026-05-06 19:08 50.35150 30.89903 407 ft 0 kts 286°
2026-05-06 19:09 50.35150 30.89905 407 ft 0 kts 286°
2026-05-06 19:09 50.35150 30.89907 407 ft 0 kts 286°
2026-05-06 19:09 50.35149 30.89908 407 ft 0 kts 286°
2026-05-06 19:10 50.35149 30.89910 407 ft 0 kts 286°
2026-05-06 19:10 50.35149 30.89911 407 ft 0 kts 286°
2026-05-06 19:10 50.35147 30.89923 404 ft 3 kts 286°
2026-05-06 19:10 50.35141 30.89951 409 ft 3 kts 286°
2026-05-06 19:11 50.35136 30.89978 404 ft 3 kts 289°
2026-05-06 19:11 50.35126 30.90004 405 ft 3 kts 322°
2026-05-06 19:11 50.35110 30.90018 408 ft 3 kts 353°
2026-05-06 19:11 50.35102 30.90019 405 ft 0 kts